TKSAT-1 (TUPAC KATARI)

Last updated on Tue Sep 22 2026 00:03:13 GMT+0000 (Coordinated Universal Time)

1 39481U 13075A 26264.54306426 -.00000199 00000+0 00000+0 0 9999 2 39481 0.0404 19.0884 0002149 144.6369 305.0200 1.00271928 46576
UTC large
Height (km)
Speed (km/s)
/
Latitude / Longitude
Inclination (degrees)
Orbital Period (minutes)
Azimuth
Elevation
Range (km)
Doppler Factor

Next 0 passes for location: London (51.5072 / 0.1276)

No passes found over London.
TKSAT-1 (TUPAC KATARI)